Location: St. Louis
(38.6270°N, 90.1994°W)
Time: 09:46:30
(UTC-06:00)

SR - Pass Details

Date: 04 December 2021
Orbit: 582 x 872 km, 66.7° (Epoch: 21 January)

Event Time Altitude Azimuth Distance (km) Brightness Sun altitude
Rises 00:12:42 0° 241° (WSW) 2,989 - -73.0°
Reaches altitude 10° 00:15:31 10° 257° (WSW) 2,031 - -72.8°
Maximum altitude 00:19:02 22° 308° (NW) 1,377 - -72.6°
Drops below altitude 10° 00:22:24 10° 359° (N) 1,946 - -72.3°
Sets 00:25:03 0° 15° (NNE) 2,828 - -72.1°
